Regional Weather Roundup
Issued by NWS

Home | Current Version | Previous Version | Graphics & Text | Print | Product List | Glossary On
Versions: 1 2 3 4 5 6 7 8 9 10 11 12 13 14 15 16 17 18 19 20 21 22 23 24 25 26 27 28 29 30 31 32 33 34 35 36 37 38 39 40 41 42 43 44 45 46 47 48 49 50
000
ASUS45 KTFX 261310
RWRMT
MONTANA REGIONAL WEATHER ROUNDUP
NATIONAL WEATHER SERVICE GREAT FALLS MT
700 AM MDT TUE JUL 26 2016

NOTE: "FAIR" INDICATES FEW OR NO CLOUDS BELOW 12000 FEET WITH NO
SIGNIFICANT WEATHER AND/OR OBSTRUCTIONS TO VISIBILITY.

MTZ001>007-043-261400-
WEST OF THE DIVIDE

CITY           SKY/WX    TMP DP  RH WIND       PRES   REMARKS
KALISPELL      CLEAR     57  52  83 VRB6      30.04R
MISSOULA       CLEAR     55  46  71 CALM      30.11R
BUTTE          CLEAR     45  38  76 CALM      30.22R
MULLAN PASS    CLEAR     64  41  42 W5        30.22R
ANACONDA         N/A     54  39  58 S6        30.18R
DEER LODGE       N/A     48  46  93 W5        30.20R
EUREKA           N/A     55  50  82 CALM      30.08R
HAMILTON         N/A     59  41  51 CALM      30.11R
LIBBY            N/A     55  48  76 CALM      30.06R
PLAINS           N/A     55  46  71 CALM      30.06R
RONAN            N/A     54  49  83 CALM      30.09R
$$

MTZ008-052>055-261400-
SOUTHWEST MONTANA

CITY           SKY/WX    TMP DP  RH WIND       PRES   REMARKS
BOZEMAN        CLEAR     55  46  71 S5        30.16R
DILLON         CLEAR     50  40  68 SW7       30.18R
W YELLOWSTONE  CLOUDY    41  34  75 CALM      30.29R
ENNIS          CLEAR     50  37  62 CALM      30.24R
THREE FORKS      N/A     52  47  83 CALM      30.12R
TWIN BRIDGES     N/A     46  38  74 CALM      30.15R
$$

MTZ009-010-012-014-046-048-049-054-261400-
EAST SLOPES AND CENTRAL MONTANA

CITY           SKY/WX    TMP DP  RH WIND       PRES   REMARKS
CUT BANK       CLEAR     58  55  90 SW8       30.10S
GREAT FALLS    CLEAR     60  49  66 S8        30.09R
MALMSTROM AFB  CLEAR     61  50  66 SW5       30.09R
HELENA         CLEAR     59  49  69 CALM      30.14R
CHOTEAU          N/A     57  54  88 NW7       30.14R
CONRAD           N/A     58  58 100 CALM      30.12S
$$

MTZ011-013-016-021-045-047-050-051-261400-
NORTH CENTRAL MONTANA

CITY           SKY/WX    TMP DP  RH WIND       PRES   REMARKS
HAVRE          SUNNY     65  60  84 E14       30.04R
LEWISTOWN      CLEAR     58  49  72 E7        30.12R
N BAR RANCH      N/A     57  45  62 NW5       30.16R
CHINOOK          N/A     64  61  88 SE6       30.05R
$$

MTZ017>020-022>027-061-062-261400-
NORTHEAST MONTANA

CITY           SKY/WX    TMP DP  RH WIND       PRES   REMARKS
GLASGOW        MOSUNNY   67  60  78 E13       30.03R
JORDAN           N/A     66  58  75 E5        30.02R
SIDNEY         CLOUDY    67  62  84 CALM      30.08R
WOLF POINT     CLOUDY    67  62  84 NE7       30.05S
PLENTYWOOD       N/A     68  57  68 E6        30.08R
POPLAR           N/A     64  61  88 CALM      30.06S
SCOBEY           N/A     60  50  69 N1        30.08R
$$

MTZ028>42-056>058-261400-
SOUTHCENTRAL AND SOUTHEAST MONTANA

CITY           SKY/WX    TMP DP  RH WIND       PRES   REMARKS
BAKER          LGT RAIN  64  64 100 N18       30.11R
BILLINGS       MOSUNNY   64  50  60 NE3       30.08R
LIVINGSTON     CLEAR     55  47  74 W3        30.14R
MILES CITY     CLOUDY    69  56  62 E10       30.03R
EKALAKA          N/A     62  57  83 NE10      30.05R
FORSYTH          N/A     66  59  77 NE5       30.03R
LAUREL           N/A     64  48  56 CALM      30.06S
ROUNDUP          N/A     62  51  67 CALM      30.00R
$$

REGIONAL REPORTS...DAKOTAS

CITY           SKY/WX    TMP DP  RH WIND       PRES   REMARKS
WILLISTON      CLOUDY    68  60  75 W3        30.07R
MINOT          SUNNY     68  63  84 NW6       30.01R
DICKINSON      CLOUDY    65  63  93 NW12G30   30.07R
BEACH          TSTM      63  63 100 S12G22    30.18R
CROSBY           N/A     61  61 100 N6        30.09S
WATFORD CITY     N/A    N/A N/A N/A MISG        N/A
BISMARCK       SUNNY     71  67  87 NE13      29.97R
GRAND FORKS    CLOUDY    71  63  75 NE3       29.95R
FARGO          CLOUDY    70  63  78 CALM      29.94F
BUFFALO SD       N/A     66  62  87 N20       30.04F
RAPID CITY     PTSUNNY   71  56  58 N26G41    30.05R
$$

REGIONAL REPORTS...WYOMING/IDAHO/WASHINGTON

CITY           SKY/WX    TMP DP  RH WIND       PRES   REMARKS
GILLETTE       SUNNY     61  55  81 NW8       30.12R
SHERIDAN       SUNNY     66  48  52 SE3       30.10R
BUFFALO WY     SUNNY     66  46  48 N6        30.18R
CODY           CLEAR     63  45  51 SW5       30.17R
YELLOWSTONE LA   N/A     40  35  83 CALM      30.37R
IDAHO FALLS    CLOUDY    49  42  77 VRB3      30.14R
SALMON         CLEAR     52  41  66 CALM      30.14R
BOISE          CLEAR     68  35  29 S8        29.98R
SPOKANE        PTCLDY    67  48  50 SE7       30.01R
$$

REGIONAL REPORTS...ALBERTA

CITY           SKY/WX    TMP DP  RH WIND       PRES   REMARKS
EDMONTON       PTCLDY    61  54  77 S7        30.06R
CALGARY        PTCLDY    57  55  94 VRB2      30.09R
LETHBRIDGE     PTCLDY    57  54  88 W14       30.05S
MEDICINE HAT   PTSUNNY   64  59  82 NE8       30.04S
WATERTON GATE    N/A     52  50  93 SW3         N/A
CARDSTON         N/A     61  54  77 S6          N/A
MILK RIVER       N/A     57  54  88 SW3         N/A
$$

REGIONAL REPORTS...SASKATCHEWAN

CITY           SKY/WX    TMP DP  RH WIND       PRES   REMARKS
SWIFT CURRENT  CLOUDY    61  55  82 E6        30.10R
REGINA         MOSUNNY   59  57  94 CALM      30.09S
SASKATOON      PTSUNNY   59  55  88 E3        30.12R
CYPRESS HILLS    N/A     61  55  82 E3          N/A
VAL MARIE        N/A     61  57  88 E7          N/A
ROCKGLEN         N/A     61  55  82 NE3         N/A
ASSINIBOIA       N/A     55  54  94 S3          N/A
$$



USA.gov is the U.S. government's official web portal to all federal, state and local government web resources and services.